Measurement date,Total daily rainfall,Maximum daily air temperature,Minimum daily air temperature
Date ,Rainfall,Air temperature,Air temperature
Units: Year month day,Units: millimetre,Units: degree Celsius,Units: degree Celsius
2011-01-01,0,3.40,1.70
2011-01-02,0,1.70,-0.30
2011-01-03,2.6,5.10,0.00
2011-01-04,12.2,5.60,1.10
2011-01-05,3.8,4.50,0.60
2011-01-06,0,3.00,0.70
2011-01-07,2.3,1.40,-7.10
2011-01-08,2.5,4.30,-5.30
2011-01-09,6.9,4.80,-1.30
2011-01-10,33.4,6.00,-0.50
2011-01-11,10.2,5.10,1.40
2011-01-12,13.4,10.30,0.70
2011-01-13,8.1,12.30,-0.60
2011-01-14,7.9,11.00,0.10
2011-01-15,19.5,10.20,5.70
2011-01-16,0,10.00,8.30
2011-01-17,0.2,10.10,4.10
2011-01-18,0,10.20,-1.10
2011-01-19,0,5.20,-1.00
2011-01-20,0,5.40,-7.80
2011-01-21,0.3,-0.50,-7.60
2011-01-22,0.1,4.90,-4.40
2011-01-23,0.6,6.40,-0.90
2011-01-24,0.1,9.10,2.10
2011-01-25,0.1,10.00,2.10
2011-01-26,0.1,7.10,3.60
2011-01-27,0,4.00,0.70
2011-01-28,0,3.90,-0.20
2011-01-29,0,4.00,-4.60
2011-01-30,0.1,5.50,-4.50
2011-01-31,11.3,7.90,0.70
2011-02-01,3.7,9.90,4.00
2011-02-02,13.9,10.40,3.40
2011-02-03,17.5,10.60,3.30
2011-02-04,13.4,11.20,4.80
2011-02-05,12.1,10.90,5.80
2011-02-06,20.3,11.50,4.50
2011-02-07,13,9.40,3.80
2011-02-08,15.2,9.10,0.10
2011-02-09,14.7,9.60,0.50
2011-02-10,0.4,9.00,0.50
2011-02-11,10,6.40,0.20
2011-02-12,20,7.40,4.00
2011-02-13,18.1,7.00,2.80
2011-02-14,0,7.20,1.90
2011-02-15,0,6.30,-0.50
2011-02-16,0,8.70,-0.10
2011-02-17,14.1,8.80,-0.70
2011-02-18,8.3,7.00,-0.60
2011-02-19,0.1,4.20,1.00
2011-02-20,0.1,5.40,1.60
2011-02-21,0.4,4.10,1.90
2011-02-22,4.7,8.20,2.60
2011-02-23,1.2,9.90,3.80
2011-02-24,1.4,10.60,7.20
2011-02-25,0,11.60,7.60
2011-02-26,0.1,10.70,6.40
2011-02-27,0.1,10.10,1.50
2011-02-28,0.1,10.00,0.20
2011-03-01,0.1,9.30,-1.10
2011-03-02,0.1,4.40,-0.60
2011-03-03,0.1,10.10,-2.90
2011-03-04,0.1,7.80,3.20
2011-03-05,2.15,7.40,3.00
2011-03-06,2.15,5.80,-0.50
2011-03-07,2.15,7.60,-1.00
2011-03-08,4.2,8.90,2.50
2011-03-09,13,7.90,1.60
2011-03-10,1.3,8.20,2.00
2011-03-11,14,7.80,3.00
2011-03-12,3.4,7.50,0.60
2011-03-13,0.1,7.10,3.30
2011-03-14,2.7,9.70,-0.20
2011-03-15,13.3,10.00,3.20
2011-03-16,8.4,8.60,-1.90
2011-03-17,0.9,9.90,0.70
2011-03-18,1,9.40,-1.90
2011-03-19,1.1,9.90,-1.00
2011-03-20,0.3,10.10,5.40
2011-03-21,0,13.10,6.20
2011-03-22,0,12.50,5.20
2011-03-23,0,14.80,4.80
2011-03-24,0,9.40,4.00
2011-03-25,0,13.30,1.90
2011-03-26,0,11.00,2.20
2011-03-27,0,11.60,1.40
2011-03-28,0,11.80,-0.40
2011-03-29,5.8,10.50,1.40
2011-03-30,10.7,11.10,4.30
2011-03-31,4.7,14.30,6.20
2011-04-01,2.7,15.60,8.60
2011-04-02,0.1,12.60,8.30
2011-04-03,0,12.30,7.20
2011-04-04,13,12.60,5.00
2011-04-05,23.8,12.70,7.40
2011-04-06,0.2,13.90,9.70
2011-04-07,0,13.60,7.80
2011-04-08,0,16.40,3.90
2011-04-09,0,19.40,6.50
2011-04-10,0.5,18.60,8.70
2011-04-11,0.6,13.30,9.80
2011-04-12,1.3,12.40,4.40
2011-04-13,2.1,10.00,6.10
2011-04-14,0.1,11.80,7.10
2011-04-15,0.1,13.80,8.90
2011-04-16,0,13.10,8.20
2011-04-17,0,14.70,3.20
2011-04-18,0,15.60,5.90
2011-04-19,0,18.80,8.60
2011-04-20,0,19.40,6.80
2011-04-21,0,21.70,7.40
2011-04-22,1.4,22.20,7.60
2011-04-23,5.1,13.60,11.40
2011-04-24,0.1,17.00,2.40
2011-04-25,0,16.20,6.90
2011-04-26,0,16.20,4.00
2011-04-27,0,15.60,1.90
2011-04-28,0,12.20,2.00
2011-04-29,0,19.40,5.60
2011-04-30,0,18.90,7.90
2011-05-01,0,18.80,7.00
2011-05-02,0,16.30,4.40
2011-05-03,0,14.90,2.20
2011-05-04,0,15.40,1.40
2011-05-05,16.3,15.10,7.90
2011-05-06,17.5,17.40,11.00
2011-05-07,16.3,19.40,10.90
2011-05-08,8.2,19.50,12.40
2011-05-09,3.3,17.00,8.60
2011-05-10,2.8,14.40,10.20
2011-05-11,0.1,13.80,9.40
2011-05-12,0.4,15.60,9.40
2011-05-13,1.3,14.20,7.20
2011-05-14,0,13.10,6.00
2011-05-15,0.4,14.10,7.30
2011-05-16,1.3,12.90,9.00
2011-05-17,1.2,15.50,9.40
2011-05-18,3.1,13.90,10.20
2011-05-19,0.6,14.50,7.10
2011-05-20,0.5,14.00,8.90
2011-05-21,20,12.90,7.20
2011-05-22,20.1,14.30,7.90
2011-05-23,3.4,13.60,8.60
2011-05-24,3.1,13.00,6.50
2011-05-25,15,12.00,4.90
2011-05-26,3.6,14.60,9.30
2011-05-27,1.5,13.60,8.30
2011-05-28,5.8,13.00,8.50
2011-05-29,0.3,15.80,8.20
2011-05-30,0,15.40,8.10
2011-05-31,0.1,16.70,4.00
2011-06-01,0,17.10,10.30
2011-06-02,0,20.10,11.00
2011-06-03,0,24.70,10.30
2011-06-04,0,14.40,11.70
2011-06-05,0,14.70,8.50
2011-06-06,0.2,16.50,6.40
2011-06-07,11.1,14.10,7.90
2011-06-08,0.1,14.80,8.40
2011-06-09,7.5,13.20,7.60
2011-06-10,0.3,13.40,5.50
2011-06-11,2.8,15.00,6.80
2011-06-12,7.7,15.90,4.50
2011-06-13,0.1,17.30,10.10
2011-06-14,1.5,17.20,7.40
2011-06-15,0.1,16.40,12.00
2011-06-16,4.5,15.50,11.20
2011-06-17,15.5,18.60,9.40
2011-06-18,6.9,14.90,10.00
2011-06-19,1.3,14.80,11.10
2011-06-20,4.1,17.20,7.80
2011-06-21,2.4,15.60,11.50
2011-06-22,15.5,16.20,11.70
2011-06-23,0.4,17.20,9.60
2011-06-24,2,15.60,6.60
2011-06-25,0.4,17.50,9.10
2011-06-26,0,20.60,13.20
2011-06-27,0,18.00,13.90
2011-06-28,0,19.90,6.70
2011-06-29,3.2,16.30,6.90
2011-06-30,0.2,17.70,8.40
2011-07-01,0,18.00,6.60
2011-07-02,0,19.50,6.80
2011-07-03,0,21.20,6.70
2011-07-04,0,22.80,8.60
2011-07-05,5.1,18.80,15.30
2011-07-06,9.4,17.40,12.40
2011-07-07,0.1,16.80,11.70
2011-07-08,7.5,19.40,8.10
2011-07-09,4.3,21.00,11.40
2011-07-10,0.2,21.00,9.60
2011-07-11,0,22.50,9.70
2011-07-12,0,18.70,10.80
2011-07-13,0,20.20,8.80
2011-07-14,0,21.00,8.40
2011-07-15,14.5,19.10,12.30
2011-07-16,24.1,19.20,13.60
2011-07-17,11.2,19.50,11.80
2011-07-18,2.7,19.50,12.80
2011-07-19,0.1,19.10,12.10
2011-07-20,2.8,17.60,12.40
2011-07-21,10.9,17.30,11.00
2011-07-22,0.1,18.60,9.90
2011-07-23,0,20.60,7.80
2011-07-24,0,22.20,8.10
2011-07-25,0,23.40,8.40
2011-07-26,0,20.40,8.40
2011-07-27,1.2,21.20,8.90
2011-07-28,2.4,16.90,11.90
2011-07-29,0,19.40,11.10
2011-07-30,0,20.50,8.90
2011-07-31,1.4,18.40,12.80
2011-08-01,10.1,18.50,15.10
2011-08-02,5.1,19.50,14.40
2011-08-03,7.9,20.10,12.60
2011-08-04,0.9,19.40,11.80
2011-08-05,0.1,20.60,13.60
2011-08-06,5.5,15.40,9.10
2011-08-07,2.4,16.50,11.10
2011-08-08,0,19.90,10.70
2011-08-09,19,19.60,7.00
2011-08-10,9.1,17.80,10.00
2011-08-11,9.9,14.80,13.60
2011-08-12,10.2,17.30,12.20
2011-08-13,1.6,16.90,13.10
2011-08-14,0.2,19.60,12.90
2011-08-15,7,18.20,8.90
2011-08-16,1.8,22.00,11.00
2011-08-17,0.7,17.70,7.50
2011-08-18,0,18.80,9.50
2011-08-19,2,17.00,7.20
2011-08-20,3.9,17.50,11.00
2011-08-21,0,18.10,10.50
2011-08-22,0,17.90,8.20
2011-08-23,0.4,16.00,9.00
2011-08-24,6,17.40,9.40
2011-08-25,0.2,17.30,9.80
2011-08-26,0.8,18.90,8.20
2011-08-27,3.8,17.50,9.50
2011-08-28,0,15.60,9.10
2011-08-29,0.1,16.20,8.50
2011-08-30,4.6,14.60,11.20
2011-08-31,0,15.10,9.40
2011-09-01,3,17.50,10.00
2011-09-02,6.9,18.30,12.20
2011-09-03,2.6,17.20,14.20
2011-09-04,5.2,16.90,9.60
2011-09-05,21,17.60,9.90
2011-09-06,4.6,15.80,11.60
2011-09-07,0.6,16.40,10.40
2011-09-08,3.4,18.10,10.70
2011-09-09,5.6,18.80,10.80
2011-09-10,2.8,18.50,13.10
2011-09-11,11.3,16.00,12.90
2011-09-12,1.2,15.30,12.20
2011-09-13,0.3,15.60,11.40
2011-09-14,0.1,17.20,10.60
2011-09-15,0,15.00,3.60
2011-09-16,13.2,15.00,8.70
2011-09-17,4.1,14.40,9.70
2011-09-18,4.3,15.70,6.30
2011-09-19,4.6,17.00,7.15
2011-09-20,0.6,16.00,8.00
2011-09-21,9.3,13.30,10.60
2011-09-22,0.1,15.30,9.20
2011-09-23,7.2,16.50,11.50
2011-09-24,3.6,17.00,12.60
2011-09-25,0,15.60,10.70
2011-09-26,0.1,15.90,8.90
2011-09-27,0,16.30,10.90
2011-09-28,0,23.20,11.20
2011-09-29,0,18.50,14.30
2011-09-30,0.1,23.10,12.10
2011-10-01,6.6,18.70,14.10
2011-10-02,1.1,15.90,14.50
2011-10-03,0.2,17.10,13.60
2011-10-04,1.9,15.40,9.20
2011-10-05,6.9,16.00,11.80
2011-10-06,2.8,11.00,6.10
2011-10-07,0.2,16.30,7.40
2011-10-08,7.3,15.20,8.40
2011-10-09,7.4,16.60,10.30
2011-10-10,2.3,15.60,12.00
2011-10-11,17.1,13.40,10.20
2011-10-12,0,13.40,7.60
2011-10-13,0,13.50,7.60
2011-10-14,1.3,14.90,10.90
2011-10-15,2.7,13.60,11.40
2011-10-16,2.1,14.40,8.40
2011-10-17,13.4,12.50,9.80
2011-10-18,6.8,8.80,4.90
2011-10-19,0.1,10.40,5.40
2011-10-20,3.5,12.50,0.70
2011-10-21,1.3,13.00,4.70
2011-10-22,1.9,12.10,10.30
2011-10-23,2,15.90,8.90
2011-10-24,2.4,15.80,10.50
2011-10-25,3.7,14.40,10.60
2011-10-26,15.5,14.30,7.30
2011-10-27,0,11.90,6.60
2011-10-28,0.3,16.90,3.10
2011-10-29,5.7,13.70,7.20
2011-10-30,5.9,15.10,8.30
2011-10-31,2.3,15.10,12.40
2011-11-01,0,13.30,8.50
2011-11-02,3.8,13.40,6.20
2011-11-03,2.5,15.70,11.10
2011-11-04,0.1,13.70,10.20
2011-11-05,0,11.10,2.00
2011-11-06,0.2,8.20,0.50
2011-11-07,0,10.30,0.90
2011-11-08,0.2,11.00,2.60
2011-11-09,8.2,12.60,8.80
2011-11-10,0,14.70,10.20
2011-11-11,17.7,11.40,8.90
2011-11-12,0.3,12.70,9.30
2011-11-13,0,13.90,5.80
2011-11-14,0,14.00,6.50
2011-11-15,0.1,11.40,5.70
2011-11-16,1.5,10.40,3.20
2011-11-17,14.1,13.70,4.60
2011-11-18,0.3,12.80,7.10
2011-11-19,0,10.80,6.80
2011-11-20,2.6,10.90,7.60
2011-11-21,5.1,12.40,7.60
2011-11-22,0.2,12.00,7.30
2011-11-23,4.7,12.80,5.10
2011-11-24,12.9,12.60,10.90
2011-11-25,1.3,11.10,5.60
2011-11-26,8,13.20,4.40
2011-11-27,0.2,9.00,6.60
2011-11-28,21.4,12.50,6.10
2011-11-29,17.5,11.90,6.90
2011-11-30,27,11.90,5.10
2011-12-01,0,6.90,4.70
2011-12-02,6.1,9.90,0.70
2011-12-03,9,6.20,3.90
2011-12-04,7.4,6.30,1.60
2011-12-05,7.1,2.50,0.80
2011-12-06,5.8,6.20,0.30
2011-12-07,17.2,11.00,1.60
2011-12-08,6,11.10,1.40
2011-12-09,0.2,5.60,1.60
2011-12-10,3.3,8.10,1.60
2011-12-11,5.1,7.50,3.20
2011-12-12,5.2,9.50,1.40
2011-12-13,2.1,5.60,3.60
2011-12-14,0,4.50,2.90
2011-12-15,5,6.20,-0.50
2011-12-16,0.3,3.00,-0.30
2011-12-17,0,3.90,-1.50
2011-12-18,3.1,3.60,-1.60
2011-12-19,3.9,7.10,-1.80
2011-12-20,6.7,6.90,2.10
2011-12-21,0.9,11.70,3.30
2011-12-22,3.2,11.70,3.30
2011-12-23,1.2,7.40,5.60
2011-12-24,3.2,11.60,2.60
2011-12-25,0,13.00,7.10
2011-12-26,0.4,11.80,10.80
2011-12-27,10.4,9.40,6.60
2011-12-28,13.2,7.40,6.50
2011-12-29,5.5,5.80,4.00
2011-12-30,11.7,10.30,2.90
2011-12-31,4.7,11.90,3.30
2012-01-01,2,12.00,6.70
2012-01-02,17,11.60,3.00
2012-01-03,6.6,7.60,3.80
2012-01-04,17.5,9.30,3.20
2012-01-05,0,7.40,3.10
2012-01-06,1.3,9.90,1.40
2012-01-07,0.1,8.40,3.00
2012-01-08,0.4,10.60,7.20
2012-01-09,0,9.00,7.70
2012-01-10,1.4,9.90,4.30
2012-01-11,1.6,10.80,7.20
2012-01-12,0,8.30,6.80
2012-01-13,0,4.90,0.10
2012-01-14,0,4.80,-1.70
2012-01-15,0,3.00,-3.40
2012-01-16,0,3.70,-3.50
2012-01-17,3.3,10.20,-1.60
2012-01-18,1.1,8.30,1.30
2012-01-19,4.1,6.70,3.60
2012-01-20,5.8,10.10,1.90
2012-01-21,3.9,8.40,4.50
2012-01-22,0.4,8.40,5.40
2012-01-23,8.9,6.70,3.00
2012-01-24,3.8,9.40,1.70
2012-01-25,4.7,9.40,2.50
2012-01-26,5,5.30,1.70
2012-01-27,0.5,4.10,1.60
2012-01-28,0,1.00,-1.70
2012-01-29,0,2.80,-0.20
2012-01-30,0,4.10,-0.70
2012-01-31,0,2.50,-0.20
2012-02-01,0,3.90,-1.10
2012-02-02,0,2.40,-5.20
2012-02-03,0.1,3.00,-2.20
2012-02-04,6.7,3.90,-0.70
2012-02-05,0.1,4.10,-2.50
2012-02-06,0,5.40,0.00
2012-02-07,0,3.50,-3.50
2012-02-08,3.9,3.60,-3.30
2012-02-09,1.7,2.40,-3.40
2012-02-10,1,2.70,-3.50
2012-02-11,1.2,3.40,0.90
2012-02-12,0.3,7.80,1.20
2012-02-13,0.1,9.80,2.20
2012-02-14,0,9.50,4.20
2012-02-15,0,11.90,6.60
2012-02-16,0,10.10,4.90
2012-02-17,7.6,10.00,4.90
2012-02-18,2.1,6.60,4.00
2012-02-19,0.9,6.50,-1.10
2012-02-20,2.3,9.50,2.30
2012-02-21,11.25,10.95,6.50
2012-02-22,20.2,12.40,8.10
2012-02-23,0,12.20,8.00
2012-02-24,0.4,12.10,7.90
2012-02-25,0,8.80,5.90
2012-02-26,1.9,9.90,5.50
2012-02-27,0.4,11.50,6.40
2012-02-28,0,13.00,9.50
2012-02-29,0,13.00,7.70
2012-03-01,2,10.10,7.30
2012-03-02,2.9,10.50,6.40
2012-03-03,5.6,10.20,3.90
2012-03-04,0.1,8.00,2.30
2012-03-05,0,10.40,-0.50
2012-03-06,6.9,10.20,-1.30
2012-03-07,3.2,7.90,3.10
2012-03-08,0.3,9.90,2.50
2012-03-09,0,13.40,7.10
2012-03-10,0,13.40,7.40
2012-03-11,0.1,14.10,7.60
2012-03-12,0,9.60,8.10
2012-03-13,0,9.80,6.70
2012-03-14,0,7.40,6.10
2012-03-15,0.7,8.40,5.30
2012-03-16,2.8,9.10,6.70
2012-03-17,0,10.90,2.10
2012-03-18,0,11.60,1.70
2012-03-19,0.2,10.00,2.10
2012-03-20,0.1,13.40,8.10
2012-03-21,0,12.00,8.50
2012-03-22,0,16.40,1.70
2012-03-23,0,14.10,5.20
2012-03-24,0,17.40,6.20
2012-03-25,0,18.80,6.80
2012-03-26,0,18.60,5.00
2012-03-27,0,20.20,3.90
2012-03-28,0,20.40,3.80
2012-03-29,0,17.50,6.70
2012-03-30,0,16.10,5.50
2012-03-31,0,12.20,4.90
2012-04-01,0,13.00,0.70
2012-04-02,2.7,12.80,6.70
2012-04-03,0.1,6.10,4.50
2012-04-04,0,8.60,1.80
2012-04-05,0.1,10.50,-1.40
2012-04-06,0.1,11.10,5.20
2012-04-07,0.1,11.70,5.20
2012-04-08,0.7,12.90,6.40
2012-04-09,6.2,9.40,5.40
2012-04-10,7,10.00,4.60
2012-04-11,7.9,11.50,3.00
2012-04-12,3.5,10.40,2.40
2012-04-13,0,11.10,0.70
2012-04-14,0,10.00,-0.10
2012-04-15,0,9.90,-0.50
2012-04-16,15.1,9.40,-1.20
2012-04-17,6.4,10.60,4.30
2012-04-18,3.7,11.80,2.40
2012-04-19,0.2,13.30,7.00
2012-04-20,0.3,11.50,4.50
2012-04-21,2.2,12.90,5.40
2012-04-22,0.1,12.80,4.80
2012-04-23,0,11.80,3.00
2012-04-24,2.2,11.50,3.40
2012-04-25,2,12.70,4.10
2012-04-26,1.9,10.60,6.00
2012-04-27,0.3,11.80,3.10
2012-04-28,0,12.00,3.20
2012-04-29,6.7,11.90,0.50
2012-04-30,0.1,15.40,4.50
2012-05-01,0.1,11.20,8.00
2012-05-02,0,16.40,6.60
2012-05-03,0.6,14.90,3.90
2012-05-04,0,12.60,5.40
2012-05-05,0.3,8.80,0.70
2012-05-06,0.4,9.60,0.40
2012-05-07,6.9,10.50,-0.10
2012-05-08,0,12.80,5.80
2012-05-09,14.3,13.80,1.70
2012-05-10,24.1,8.40,5.40
2012-05-11,0,11.80,4.00
2012-05-12,0.1,15.00,2.40
2012-05-13,9,11.00,5.50
2012-05-14,2.1,13.20,5.00
2012-05-15,0.3,12.80,2.90
2012-05-16,1.2,12.20,2.60
2012-05-17,3.5,10.90,7.70
2012-05-18,0.3,12.00,6.40
2012-05-19,0,11.40,5.60
2012-05-20,0,15.80,2.70
2012-05-21,0,18.80,6.20
2012-05-22,0,22.30,8.70
2012-05-23,0,23.60,10.00
2012-05-24,0,25.60,10.50
2012-05-25,0,25.80,14.40
2012-05-26,0,25.10,12.10
2012-05-27,0,25.20,9.50
2012-05-28,0,25.50,11.00
2012-05-29,0,20.00,10.40
2012-05-30,5.2,18.00,10.50
2012-05-31,1.2,18.50,12.70
2012-06-01,0,17.40,10.30
2012-06-02,0,12.10,9.40
2012-06-03,0,12.90,7.60
2012-06-04,0,15.60,3.30
2012-06-05,23,14.80,4.40
2012-06-06,0.1,15.60,10.20
2012-06-07,8.7,15.80,10.70
2012-06-08,11.7,15.50,11.60
2012-06-09,7,18.50,9.00
2012-06-10,0.1,17.70,10.20
2012-06-11,0,15.50,9.20
2012-06-12,0.1,14.90,7.10
2012-06-13,0.3,16.20,6.80
2012-06-14,7.6,17.40,8.80
2012-06-15,30.2,14.20,8.00
2012-06-16,15,13.90,9.50
2012-06-17,ND,15.00,0.00
2012-06-18,3.5,16.20,4.80
2012-06-19,0,17.00,10.00
2012-06-20,0,19.40,6.40
2012-06-21,29.2,14.20,11.20
2012-06-22,8.6,15.60,11.20
2012-06-23,3.2,16.20,10.60
2012-06-24,3.6,18.20,10.70
2012-06-25,4,18.10,9.00
2012-06-26,4.3,18.00,8.40
2012-06-27,2.3,18.00,7.70
2012-06-28,9.3,19.00,13.60
2012-06-29,3.4,15.60,12.70
2012-06-30,0.4,16.40,12.90
2012-07-01,3.9,16.60,10.60
2012-07-02,2.2,15.80,11.20
2012-07-03,5.1,18.10,13.00
2012-07-04,4.5,21.70,14.20
2012-07-05,0.1,23.20,15.30
2012-07-06,12.3,19.70,15.30
2012-07-07,0,20.00,14.30
2012-07-08,1.2,18.70,11.80
2012-07-09,7.6,16.00,12.50
2012-07-10,8.3,14.30,10.70
2012-07-11,0.7,18.60,11.00
2012-07-12,0.1,18.10,8.90
2012-07-13,0.8,17.00,9.20
2012-07-14,3.9,15.10,9.80
2012-07-15,1.1,16.90,7.10
2012-07-16,1.9,18.20,7.90
2012-07-17,6.8,16.80,10.20
2012-07-18,4.3,17.20,14.50
2012-07-19,0.9,17.10,10.20
2012-07-20,0,17.50,10.30
2012-07-21,0.4,17.60,7.50
2012-07-22,13.9,16.50,13.10
2012-07-23,19.5,16.00,14.80
2012-07-24,5.2,18.70,14.30
2012-07-25,0.2,22.50,11.80
2012-07-26,0.9,17.40,13.40
2012-07-27,0,18.30,10.20
2012-07-28,4.8,16.50,9.60
2012-07-29,1.7,16.10,10.20
2012-07-30,0.1,16.10,9.70
2012-07-31,16,15.90,5.70
2012-08-01,10.1,18.50,15.10
2012-08-02,5.1,19.50,14.40
2012-08-03,7.9,20.10,12.60
2012-08-04,0.9,19.40,11.80
2012-08-05,0.1,20.60,13.60
2012-08-06,5.5,15.40,9.10
2012-08-07,2.4,16.50,11.10
2012-08-08,0,19.90,10.70
2012-08-09,19,19.60,7.00
2012-08-10,9.1,17.80,10.00
2012-08-11,9.9,14.80,13.60
2012-08-12,10.2,17.30,12.20
2012-08-13,1.6,16.90,13.10
2012-08-14,0.2,19.60,12.90
2012-08-15,7,18.20,8.90
2012-08-16,1.8,22.00,11.00
2012-08-17,0.7,17.70,7.50
2012-08-18,0,18.80,9.50
2012-08-19,2,17.00,7.20
2012-08-20,3.9,17.50,11.00
2012-08-21,0,18.10,10.50
2012-08-22,0,17.90,8.20
2012-08-23,0.4,16.00,9.00
2012-08-24,6,17.40,9.40
2012-08-25,0.2,17.30,9.80
2012-08-26,0.8,18.90,8.20
2012-08-27,3.8,17.50,9.50
2012-08-28,0,15.60,9.10
2012-08-29,0.1,16.20,8.50
2012-08-30,4.6,14.60,11.20
2012-08-31,0,15.10,9.40
2012-09-01,3,17.50,10.00
2012-09-02,6.9,18.30,12.20
2012-09-03,2.6,17.20,14.20
2012-09-04,5.2,16.90,9.60
2012-09-05,21,17.60,9.90
2012-09-06,4.6,15.80,11.60
2012-09-07,0.6,16.40,10.40
2012-09-08,3.4,18.10,10.70
2012-09-09,5.6,18.80,10.80
2012-09-10,2.8,18.50,13.10
2012-09-11,11.3,16.00,12.90
2012-09-12,1.2,15.30,12.20
2012-09-13,0.3,15.60,11.40
2012-09-14,0.1,17.20,10.60
2012-09-15,0,15.00,3.60
2012-09-16,13.2,15.00,8.70
2012-09-17,4.1,14.40,9.70
2012-09-18,4.3,16.00,6.30
2012-09-19,4.6,17.00,7.00
2012-09-20,0.6,16.00,8.00
2012-09-21,9.3,13.30,10.60
2012-09-22,0.1,15.30,9.20
2012-09-23,7.2,16.50,11.50
2012-09-24,3.6,17.00,12.60
2012-09-25,0,15.60,10.70
2012-09-26,0.1,15.90,8.90
2012-09-27,0,16.30,10.90
2012-09-28,0,23.20,11.20
2012-09-29,0,18.50,14.30
2012-09-30,0.1,23.10,12.10
2012-10-01,4.7,13.80,10.20
2012-10-02,9.7,13.90,8.80
2012-10-03,0.4,13.10,7.40
2012-10-04,8.7,13.30,1.40
2012-10-05,1.5,13.70,2.60
2012-10-06,0.1,16.10,3.60
2012-10-07,0,11.90,1.80
2012-10-08,0,15.20,1.60
2012-10-09,0,15.10,1.20
2012-10-10,0.7,12.60,0.00
2012-10-11,34.7,10.90,5.30
2012-10-12,0,12.60,8.30
2012-10-13,2.3,12.60,3.40
2012-10-14,0.8,12.60,3.40
2012-10-15,13.3,9.30,4.60
2012-10-16,8.8,9.00,4.60
2012-10-17,22.7,10.40,1.70
2012-10-18,6.8,12.20,5.20
2012-10-19,9.4,12.20,7.30
2012-10-20,0.1,14.70,8.30
2012-10-21,0,15.20,5.70
2012-10-22,0,11.50,4.30
2012-10-23,0,12.80,7.00
2012-10-24,0,12.60,10.20
2012-10-25,0,10.00,11.30
2012-10-26,0,7.30,0.60
2012-10-27,1.4,9.80,-0.90
2012-10-28,0.9,9.50,3.00
2012-10-29,0.7,9.60,4.10
2012-10-30,8,9.50,2.10
2012-10-31,11.1,9.50,3.00
2012-11-01,2.6,7.90,2.90
2012-11-02,11.6,9.30,3.60
2012-11-03,0.7,7.90,1.10
2012-11-04,0,10.10,2.40
2012-11-05,0.7,10.30,0.90
2012-11-06,0.1,11.20,1.20
2012-11-07,3.1,10.60,8.60
2012-11-08,5.1,12.20,7.90
2012-11-09,5.1,10.40,8.40
2012-11-10,1.1,9.20,2.60
2012-11-11,2.4,9.80,1.90
2012-11-12,7.4,12.30,2.20
2012-11-13,7.2,11.90,6.80
2012-11-14,2.4,11.80,10.50
2012-11-15,0.8,11.10,8.50
2012-11-16,1.3,9.10,4.90
2012-11-17,1,8.10,5.20
2012-11-18,27,8.60,2.10
2012-11-19,12.5,11.80,2.00
2012-11-20,2.8,12.40,8.10
2012-11-21,6.7,10.50,5.70
2012-11-22,28.7,10.20,5.90
2012-11-23,2,9.30,4.90
2012-11-24,10.9,4.90,-1.10
2012-11-25,11.3,6.30,0.10
2012-11-26,0,6.60,3.00
2012-11-27,0,2.80,4.20
2012-11-28,0,6.10,0.30
2012-11-29,0,2.90,-2.20
2012-11-30,0.2,2.40,-3.70
2012-12-01,0,5.20,-1.60
2012-12-02,5.4,3.30,-3.10
2012-12-03,3.4,5.70,-0.80
2012-12-04,1.1,4.40,1.40
2012-12-05,3,4.00,-1.20
2012-12-06,13.7,5.60,-4.10
2012-12-07,0,7.30,0.40
2012-12-08,1,8.50,-1.30
2012-12-09,0,8.90,1.30
2012-12-10,0,6.30,-0.60
2012-12-11,0,2.90,-3.10
2012-12-12,0,1.90,-3.40
2012-12-13,0.1,2.60,-0.60
2012-12-14,11.7,7.10,-0.90
2012-12-15,1.4,8.00,1.10
2012-12-16,4.4,8.20,1.10
2012-12-17,0.3,6.10,4.80
2012-12-18,0,9.10,3.10
2012-12-19,12.4,6.40,5.10
2012-12-20,33.7,5.50,4.60
2012-12-21,4.4,5.40,4.20
2012-12-22,13.6,10.40,4.50
2012-12-23,0.2,9.40,5.30
2012-12-24,29.9,9.40,7.20
2012-12-25,3.5,6.90,3.90
2012-12-26,17.2,6.80,4.80
2012-12-27,5.5,10.20,3.10
2012-12-28,3.6,10.80,2.80
2012-12-29,2.1,8.60,8.10
2012-12-30,12.9,10.50,3.10
2012-12-31,0.6,10.30,3.50
